DW7267 Weather Reports


Display with metric or nautical units.
time (UTC)temp
F
wind
direction
speed
MPH
gust
MPH
rain 1hr
in
rain 24hr
in
rain mn
in
humidity
%
barometer
mb
20210731063003 64 124 1.0 6.0 0.00 0.00 0.00 75 1024.9
20210731062458 64 74 1.0 4.0 0.00 0.00 0.00 76 1024.8
20210731061958 64 77 2.0 6.0 0.00 0.00 0.00 76 1024.8
20210731061452 64 78 2.0 6.0 0.00 0.00 0.00 76 1024.8
20210731060946 65 115 1.0 6.0 0.00 0.00 0.00 76 1024.8
20210731060440 65 91 1.0 5.0 0.00 0.00 0.00 75 1024.8
20210731055935 65 79 1.0 5.0 0.00 0.00 0.00 75 1024.7
20210731055433 65 74 2.0 5.0 0.00 0.00 0.00 75 1024.7
20210731054935 65 93 2.0 5.0 0.00 0.00 0.00 75 1024.7
20210731054433 65 80 2.0 5.0 0.00 0.00 0.00 75 1024.5
20210731053932 66 110 2.0 5.0 0.00 0.00 0.00 75 1024.5
20210731053432 66 83 2.0 6.0 0.00 0.00 0.00 72 1024.4
20210731052932 66 79 3.0 7.0 0.00 0.00 0.00 71 1024.4
20210731052432 67 84 3.0 7.0 0.00 0.00 0.00 70 1024.4
20210731051929 67 60 2.0 5.0 0.00 0.00 0.00 70 1024.5
20210731051420 67 63 2.0 4.0 0.00 0.00 0.00 70 1024.5
20210731050919 67 84 2.0 4.0 0.00 0.00 0.00 70 1024.5
20210731050416 67 78 1.0 4.0 0.00 0.00 0.00 71 1024.5
20210731045918 67 107 0.0 3.0 0.00 0.00 0.00 73 1024.7
20210731045417 67 88 1.0 3.0 0.00 0.00 0.00 72 1024.7
20210731044915 67 103 0.0 3.0 0.00 0.00 0.00 70 1024.5
20210731044415 67 59 0.0 4.0 0.00 0.00 0.00 72 1024.5
20210731043910 67 59 0.0 4.0 0.00 0.00 0.00 72 1024.7
20210731043411 67 59 1.0 5.0 0.00 0.00 0.00 72 1024.7
20210731042911 67 46 3.0 6.0 0.00 0.00 0.00 71 1024.5
20210731042411 67 46 3.0 6.0 0.00 0.00 0.00 73 1024.4
20210731041909 66 27 2.0 6.0 0.00 0.00 0.00 75 1024.4
20210731041409 66 28 1.0 6.0 0.00 0.00 0.00 76 1024.4
20210731040905 65 57 0.0 6.0 0.00 0.00 0.00 77 1024.4
20210731040404 65 84 0.0 1.0 0.00 0.00 0.00 77 1024.3
20210731035903 65 73 0.0 0.0 0.00 0.00 0.00 78 1024.2
20210731035403 66 73 0.0 0.0 0.00 0.00 0.00 77 1024.1
20210731034901 66 73 0.0 0.0 0.00 0.00 0.00 76 1024.1
20210731034400 67 73 0.0 1.0 0.00 0.00 0.00 75 1024.1
20210731033852 67 73 0.0 1.0 0.00 0.00 0.00 75 1023.9
20210731033352 67 73 0.0 1.0 0.00 0.00 0.00 74 1023.8
20210731032850 67 73 0.0 1.0 0.00 0.00 0.00 75 1023.7
20210731032347 67 254 0.0 0.0 0.00 0.00 0.00 76 1023.7
20210731031845 67 255 0.0 0.0 0.00 0.00 0.00 75 1023.7
20210731031346 67 255 0.0 0.0 0.00 0.00 0.00 73 1023.6
20210731030842 68 255 0.0 0.0 0.00 0.00 0.00 72 1023.6
20210731030344 68 254 0.0 0.0 0.00 0.00 0.00 72 1023.5
20210731025843 69 255 0.0 0.0 0.00 0.00 0.00 72 1023.5
20210731025342 69 255 0.0 0.0 0.00 0.00 0.00 71 1023.5
20210731024840 69 254 0.0 0.0 0.00 0.00 0.00 70 1023.4
20210731024340 70 254 0.0 0.0 0.00 0.00 0.00 69 1023.4
20210731023838 71 254 0.0 0.0 0.00 0.00 0.00 68 1023.5
20210731023336 71 254 0.0 0.0 0.00 0.00 0.00 67 1023.5
20210731022835 72 255 0.0 0.0 0.00 0.00 0.00 66 1023.4
20210731022336 72 255 0.0 1.0 0.00 0.00 0.00 64 1023.5
20210731021834 73 255 0.0 1.0 0.00 0.00 0.00 61 1023.5
20210731021335 73 255 0.0 1.0 0.00 0.00 0.00 61 1023.5
20210731020830 74 254 0.0 5.0 0.00 0.00 0.00 60 1023.4
20210731020330 74 254 0.0 5.0 0.00 0.00 0.00 58 1023.2
20210731015832 75 255 1.0 5.0 0.00 0.00 0.00 57 1023.2
20210731015329 75 254 1.0 5.0 0.00 0.00 0.00 56 1023.2
20210731014827 76 258 0.0 4.0 0.00 0.00 0.00 53 1023.1
20210731014328 76 235 0.0 4.0 0.00 0.00 0.00 54 1023.1
20210731013824 76 274 1.0 4.0 0.00 0.00 0.00 54 1023.1
20210731013323 76 244 2.0 4.0 0.00 0.00 0.00 53 1022.9
20210731012822 76 247 1.0 4.0 0.00 0.00 0.00 52 1022.8
20210731012322 76 77 0.0 2.0 0.00 0.00 0.00 52 1022.6
20210731011820 76 87 0.0 1.0 0.00 0.00 0.00 51 1022.5
20210731011319 75 87 1.0 2.0 0.00 0.00 0.00 52 1022.5
20210731010817 75 87 1.0 4.0 0.00 0.00 0.00 52 1022.5
20210731010316 75 43 2.0 4.0 0.00 0.00 0.00 51 1022.6
20210731005814 75 30 2.0 5.0 0.00 0.00 0.00 50 1022.5
20210731005314 76 28 3.0 6.0 0.00 0.01 0.00 50 1022.5
20210731004814 75 58 3.0 6.0 0.00 0.01 0.00 49 1022.6
20210731004316 75 58 3.0 6.0 0.00 0.01 0.00 50 1022.5
20210731003815 75 68 3.0 6.0 0.00 0.02 0.00 49 1022.6
20210731003311 75 79 3.0 6.0 0.00 0.02 0.00 50 1022.6
20210731002811 75 82 3.0 7.0 0.00 0.02 0.00 50 1022.6
20210731002314 75 66 3.0 7.0 0.00 0.02 0.00 50 1022.6
20210731001810 75 88 4.0 9.0 0.00 0.02 0.00 51 1022.6
20210731001312 75 98 4.0 11.0 0.00 0.02 0.00 51 1022.6
20210731000811 75 71 4.0 11.0 0.00 0.03 0.00 51 1022.8
20210731000327 76 96 5.0 12.0 0.00 0.03 0.00 51 1022.9
20210730235805 76 77 5.0 12.0 0.00 0.03 0.00 50 1022.9
20210730235306 78 20 3.0 10.0 0.00 0.03 0.00 48 1023.0
20210730234805 80 74 1.0 10.0 0.00 0.04 0.00 44 1022.9
20210730234307 80 275 0.0 6.0 0.00 0.04 0.00 44 1022.8
20210730233806 81 274 1.0 8.0 0.00 0.04 0.00 43 1022.8
20210730233305 82 282 2.0 8.0 0.00 0.04 0.00 42 1022.8
20210730232759 82 243 3.0 8.0 0.00 0.04 0.00 41 1022.8
20210730232300 82 199 3.0 8.0 0.00 0.04 0.00 42 1022.9
20210730231801 81 216 3.0 8.0 0.00 0.04 0.00 45 1022.6
20210730231259 80 235 2.0 9.0 0.00 0.04 0.00 44 1022.5
20210730230759 80 263 2.0 10.0 0.00 0.04 0.00 44 1022.6
20210730230259 80 235 2.0 10.0 0.00 0.04 0.00 44 1022.5
20210730225752 80 259 2.0 6.0 0.00 0.04 0.00 45 1022.4
20210730225254 80 228 3.0 11.0 0.00 0.04 0.00 44 1022.5
20210730224753 80 255 3.0 11.0 0.00 0.04 0.00 43 1022.8
20210730224253 81 265 2.0 7.0 0.00 0.04 0.00 42 1022.8
20210730223751 81 63 2.0 6.0 0.00 0.04 0.00 38 1022.6
20210730223253 81 134 2.0 5.0 0.00 0.04 0.00 41 1022.8
20210730222747 82 154 1.0 7.0 0.00 0.04 0.00 39 1022.9
20210730222248 82 247 1.0 7.0 0.00 0.04 0.00 38 1023.0
20210730221750 81 150 3.0 9.0 0.00 0.04 0.00 39 1023.1
20210730221247 81 174 3.0 9.0 0.00 0.04 0.00 39 1023.4
20210730220746 82 202 2.0 8.0 0.00 0.04 0.00 42 1023.4
20210730220246 82 238 3.0 8.0 0.00 0.04 0.00 41 1023.4
20210730215741 82 186 4.0 9.0 0.00 0.04 0.00 41 1023.5
20210730215243 81 127 4.0 9.0 0.00 0.04 0.00 42 1023.5
20210730214743 81 262 3.0 9.0 0.00 0.04 0.00 42 1023.4
20210730214244 81 265 3.0 12.0 0.00 0.04 0.00 43 1023.4
20210730213740 82 223 4.0 12.0 0.00 0.04 0.00 42 1023.5
20210730213240 81 153 3.0 9.0 0.00 0.04 0.00 41 1023.4
20210730212736 81 244 4.0 9.0 0.00 0.04 0.00 43 1023.4
20210730212237 81 212 4.0 11.0 0.00 0.04 0.00 42 1023.5
20210730211736 81 267 4.0 11.0 0.00 0.04 0.00 44 1023.4
20210730211235 81 96 4.0 12.0 0.00 0.04 0.00 42 1023.4
20210730210736 80 164 4.0 12.0 0.00 0.04 0.00 44 1023.5
20210730210235 81 235 3.0 11.0 0.00 0.04 0.00 44 1023.4
20210730205733 81 219 4.0 11.0 0.00 0.04 0.00 44 1023.4
20210730205229 80 212 5.0 11.0 0.00 0.04 0.00 46 1023.5
20210730204729 80 226 4.0 11.0 0.00 0.04 0.00 44 1023.6
20210730204230 80 132 4.0 11.0 0.00 0.04 0.00 46 1023.6
20210730203729 80 205 4.0 10.0 0.00 0.04 0.00 47 1023.7
20210730203228 80 277 4.0 13.0 0.00 0.04 0.00 46 1023.7
20210730202729 79 271 4.0 13.0 0.00 0.04 0.00 46 1023.7
20210730202224 79 174 5.0 13.0 0.00 0.04 0.00 47 1023.8
20210730201723 79 148 6.0 13.0 0.00 0.04 0.00 48 1023.8
20210730201221 79 82 5.0 12.0 0.00 0.04 0.00 46 1023.8
20210730200724 80 80 4.0 12.0 0.00 0.04 0.00 47 1023.9
20210730200222 80 247 4.0 13.0 0.00 0.04 0.00 45 1023.9
20210730195721 80 238 4.0 13.0 0.00 0.04 0.00 47 1023.9
20210730195218 80 160 3.0 9.0 0.00 0.04 0.00 45 1024.1
20210730194716 80 227 3.0 10.0 0.00 0.04 0.00 47 1023.9
20210730194218 80 200 3.0 10.0 0.00 0.04 0.00 45 1024.2
20210730193717 79 111 2.0 10.0 0.00 0.04 0.00 46 1024.2
20210730193216 79 217 3.0 10.0 0.00 0.04 0.00 47 1024.1
20210730192715 79 81 4.0 10.0 0.00 0.04 0.00 45 1024.2
20210730192211 78 102 5.0 12.0 0.00 0.04 0.00 47 1024.3
20210730191711 78 73 5.0 12.0 0.00 0.04 0.00 47 1024.3
20210730191211 79 62 4.0 11.0 0.00 0.04 0.00 47 1024.3
20210730190711 79 200 4.0 11.0 0.00 0.04 0.00 46 1024.4
20210730190210 78 175 3.0 10.0 0.00 0.04 0.00 47 1024.5
20210730185711 78 99 3.0 10.0 0.00 0.04 0.00 48 1024.4
20210730185206 78 96 3.0 8.0 0.00 0.04 0.00 49 1024.5
20210730184705 78 214 3.0 9.0 0.00 0.04 0.00 48 1024.5
20210730184205 78 176 3.0 9.0 0.00 0.04 0.00 47 1024.7
20210730183706 78 219 3.0 9.0 0.00 0.04 0.00 49 1024.8
20210730183204 78 233 3.0 11.0 0.00 0.04 0.00 50 1024.8
20210730182703 78 104 3.0 11.0 0.00 0.04 0.00 46 1024.8
20210730182202 78 127 3.0 8.0 0.00 0.04 0.00 48 1024.8
20210730181701 78 137 3.0 8.0 0.00 0.04 0.00 49 1024.9
20210730181200 78 163 2.0 11.0 0.00 0.04 0.00 50 1024.9
20210730180700 78 138 2.0 11.0 0.00 0.04 0.00 48 1024.9
20210730180157 78 182 4.0 12.0 0.00 0.04 0.00 50 1024.9
20210730175657 78 268 4.0 12.0 0.00 0.04 0.00 52 1024.9
20210730175154 78 160 4.0 10.0 0.00 0.04 0.00 50 1024.9
20210730174655 78 154 4.0 12.0 0.00 0.04 0.00 51 1024.9
20210730174154 78 105 5.0 12.0 0.00 0.04 0.00 52 1024.9
20210730173654 77 115 5.0 13.0 0.00 0.04 0.00 54 1025.0
20210730173151 77 102 5.0 13.0 0.00 0.04 0.00 50 1024.9
20210730172653 77 140 5.0 13.0 0.00 0.04 0.00 51 1024.9
20210730172148 77 122 5.0 12.0 0.00 0.04 0.00 52 1025.0
20210730171648 77 152 5.0 10.0 0.00 0.04 0.00 51 1024.8
20210730171147 77 84 5.0 11.0 0.00 0.04 0.00 53 1024.8
20210730170647 76 100 6.0 11.0 0.00 0.04 0.00 52 1024.8
20210730170148 76 96 6.0 11.0 0.00 0.04 0.00 54 1024.8
20210730165645 77 127 5.0 12.0 0.00 0.04 0.00 52 1024.8
20210730165144 77 163 5.0 12.0 0.00 0.04 0.00 51 1024.8
20210730164642 77 196 5.0 9.0 0.00 0.04 0.00 54 1024.8
20210730164142 77 82 5.0 13.0 0.00 0.04 0.00 52 1024.8
20210730163641 76 145 4.0 13.0 0.00 0.04 0.00 53 1024.8
20210730163142 77 144 4.0 15.0 0.00 0.04 0.00 52 1024.5
20210730162639 76 98 5.0 15.0 0.00 0.04 0.00 54 1024.5
20210730162134 76 94 5.0 12.0 0.00 0.04 0.00 53 1024.5
20210730161636 75 163 5.0 14.0 0.00 0.04 0.00 53 1024.4
20210730161135 76 167 4.0 14.0 0.00 0.04 0.00 52 1024.4
20210730160636 75 183 3.0 9.0 0.00 0.04 0.00 53 1024.5
20210730160135 74 88 4.0 9.0 0.00 0.04 0.00 55 1024.5
20210730155635 74 72 3.0 9.0 0.00 0.04 0.00 54 1024.5
20210730155129 74 150 4.0 9.0 0.00 0.04 0.00 55 1024.5
20210730154628 74 92 4.0 9.0 0.00 0.04 0.00 57 1024.4
20210730154130 74 56 6.0 12.0 0.00 0.04 0.00 56 1024.4
20210730153631 74 92 6.0 12.0 0.00 0.04 0.00 56 1024.4
20210730153128 74 87 3.0 9.0 0.00 0.04 0.00 54 1024.4
20210730152628 75 87 1.0 6.0 0.00 0.04 0.00 55 1024.3
20210730152126 75 154 1.0 6.0 0.00 0.04 0.00 56 1024.3
20210730151626 74 202 2.0 6.0 0.00 0.04 0.00 59 1024.3
20210730151125 73 103 2.0 7.0 0.00 0.04 0.00 61 1024.2
20210730150624 73 55 1.0 7.0 0.00 0.04 0.00 59 1024.1
20210730150121 72 131 1.0 5.0 0.00 0.04 0.00 62 1024.1
20210730145622 71 77 1.0 5.0 0.00 0.04 0.00 62 1023.9
20210730145119 69 81 0.0 2.0 0.00 0.04 0.00 67 1023.8
20210730144618 68 93 0.0 1.0 0.00 0.04 0.00 74 1023.8
20210730144119 66 74 0.0 0.0 0.00 0.04 0.00 80 1023.8
20210730143617 65 74 0.0 1.0 0.00 0.04 0.00 82 1023.8
20210730143116 64 74 0.0 1.0 0.00 0.04 0.00 82 1023.8
20210730142616 64 74 0.0 1.0 0.00 0.04 0.00 83 1023.8
20210730142114 64 74 0.0 1.0 0.00 0.04 0.00 83 1023.8
20210730141611 63 74 0.0 0.0 0.00 0.04 0.00 83 1023.8
20210730141111 63 74 0.0 0.0 0.00 0.04 0.00 83 1023.8
20210730140611 63 74 0.0 0.0 0.00 0.04 0.00 84 1023.7
20210730140109 63 74 0.0 0.0 0.00 0.04 0.00 83 1023.6
20210730135609 63 74 0.0 0.0 0.00 0.04 0.00 83 1023.5
20210730135107 63 74 0.0 0.0 0.00 0.04 0.00 82 1023.4
20210730134605 63 74 0.0 0.0 0.00 0.04 0.00 80 1023.4
20210730134105 64 74 0.0 0.0 0.00 0.04 0.00 79 1023.2
20210730133605 64 74 0.0 0.0 0.00 0.04 0.00 78 1023.1
20210730133103 64 74 0.0 1.0 0.00 0.04 0.00 76 1023.1
20210730132602 65 74 0.0 1.0 0.00 0.04 0.00 75 1023.0
20210730132058 65 74 0.0 4.0 0.00 0.04 0.00 75 1023.0
20210730131555 65 74 0.0 4.0 0.00 0.04 0.00 74 1023.0
20210730131054 64 74 1.0 4.0 0.00 0.04 0.00 75 1023.0
20210730130550 63 56 2.0 5.0 0.00 0.04 0.00 77 1023.0
20210730130051 62 55 3.0 5.0 0.00 0.04 0.00 80 1023.0
20210730125548 61 64 2.0 5.0 0.00 0.04 0.00 82 1023.0
20210730125046 60 77 2.0 4.0 0.00 0.04 0.00 83 1023.0
20210730124548 60 79 1.0 4.0 0.00 0.04 0.00 83 1023.0
20210730124048 60 59 0.0 2.0 0.00 0.04 0.00 83 1023.1
20210730123545 60 59 1.0 4.0 0.00 0.04 0.00 82 1023.0
20210730123047 61 59 1.0 4.0 0.00 0.04 0.00 82 1023.0
20210730122541 61 102 0.0 2.0 0.00 0.04 0.00 81 1022.9
20210730122040 61 69 0.0 2.0 0.00 0.04 0.00 81 1022.9
20210730121541 61 82 0.0 3.0 0.00 0.04 0.00 80 1022.9
20210730121044 62 102 0.0 3.0 0.00 0.04 0.00 78 1022.8
20210730120540 63 67 0.0 3.0 0.00 0.04 0.00 76 1022.5
20210730120040 63 67 1.0 3.0 0.00 0.04 0.00 75 1022.6
20210730115536 63 67 1.0 3.0 0.00 0.04 0.00 75 1022.8
20210730115036 63 50 1.0 3.0 0.00 0.04 0.00 75 1022.6
20210730114536 63 74 1.0 3.0 0.00 0.04 0.00 75 1022.6
20210730114035 63 31 1.0 3.0 0.00 0.04 0.00 76 1022.6
20210730113534 63 51 1.0 3.0 0.00 0.04 0.00 76 1022.8
20210730113035 63 79 0.0 3.0 0.00 0.04 0.00 77 1022.9
20210730112529 62 86 0.0 3.0 0.00 0.04 0.00 77 1022.9
20210730112028 63 106 0.0 3.0 0.00 0.04 0.00 76 1022.9
20210730111531 63 106 0.0 5.0 0.00 0.04 0.00 75 1023.0
20210730111029 63 89 1.0 5.0 0.00 0.04 0.00 75 1023.0
20210730110527 64 74 2.0 5.0 0.00 0.04 0.00 74 1023.1
20210730110028 64 77 3.0 7.0 0.00 0.04 0.00 74 1023.2
20210730105524 64 92 2.0 7.0 0.00 0.04 0.00 74 1023.2
20210730105023 64 87 1.0 5.0 0.00 0.04 0.00 74 1023.2
20210730104524 64 92 1.0 5.0 0.00 0.04 0.00 74 1023.2
20210730104023 64 79 1.0 5.0 0.00 0.04 0.00 74 1023.4
20210730103523 64 92 1.0 5.0 0.00 0.04 0.00 74 1023.4
20210730103021 64 88 2.0 6.0 0.00 0.04 0.00 75 1023.5
20210730102518 64 84 3.0 6.0 0.00 0.04 0.00 74 1023.5
20210730102017 64 87 2.0 6.0 0.00 0.04 0.00 75 1023.7
20210730101517 64 72 2.0 5.0 0.00 0.04 0.00 75 1023.6
20210730101017 64 87 2.0 6.0 0.00 0.04 0.00 75 1023.7
20210730100515 64 95 3.0 6.0 0.00 0.04 0.00 74 1023.7
20210730100015 64 98 3.0 5.0 0.00 0.04 0.00 74 1023.7
20210730095511 64 95 3.0 7.0 0.00 0.04 0.00 73 1023.8
20210730095011 64 86 3.0 8.0 0.00 0.04 0.00 72 1023.8
20210730094511 65 72 2.0 8.0 0.00 0.04 0.00 72 1023.8
20210730094011 65 141 3.0 10.0 0.00 0.04 0.00 72 1023.8
20210730093509 65 109 4.0 10.0 0.00 0.04 0.00 73 1023.8
20210730093010 64 91 3.0 10.0 0.00 0.04 0.00 74 1023.8
20210730092505 63 93 3.0 6.0 0.00 0.04 0.00 75 1023.6
20210730092006 63 87 4.0 7.0 0.00 0.04 0.00 75 1023.7
20210730091505 62 79 3.0 7.0 0.00 0.04 0.00 76 1023.6
20210730091005 62 79 3.0 6.0 0.00 0.04 0.00 77 1023.6
20210730090504 61 65 3.0 6.0 0.00 0.04 0.00 78 1023.6
20210730090002 61 61 4.0 7.0 0.00 0.04 0.00 79 1023.6
20210730085501 60 70 4.0 7.0 0.00 0.04 0.00 81 1023.7
20210730085000 59 71 2.0 5.0 0.00 0.04 0.00 85 1023.7
20210730084501 57 67 0.0 4.0 0.00 0.04 0.00 90 1023.8
20210730083959 57 100 0.0 1.0 0.00 0.04 0.00 90 1023.7
20210730083458 57 99 0.0 1.0 0.00 0.04 0.00 90 1023.8
20210730082957 57 99 0.0 1.0 0.00 0.04 0.00 89 1023.8
20210730082453 57 98 0.0 1.0 0.00 0.04 0.00 90 1023.7
20210730081952 57 98 0.0 2.0 0.00 0.04 0.00 90 1023.7
20210730081455 57 100 0.0 2.0 0.00 0.04 0.00 91 1023.6
20210730080953 57 99 0.0 2.0 0.00 0.04 0.00 91 1023.7
20210730080454 57 108 0.0 2.0 0.00 0.04 0.00 91 1023.7
20210730075952 57 110 0.0 1.0 0.00 0.04 0.00 91 1023.6
20210730075448 57 110 0.0 1.0 0.00 0.04 0.00 91 1023.5
20210730074949 57 110 0.0 1.0 0.00 0.04 0.00 91 1023.5
20210730074449 57 111 0.0 0.0 0.00 0.04 0.00 90 1023.5
20210730073948 57 111 0.0 0.0 0.00 0.04 0.00 90 1023.6
20210730073448 57 110 0.0 0.0 0.00 0.04 0.00 90 1023.6
20210730072946 57 110 0.0 1.0 0.00 0.04 0.00 90 1023.6
20210730072442 57 111 0.0 1.0 0.00 0.04 0.00 90 1023.5
20210730071940 57 110 0.0 1.0 0.00 0.04 0.00 90 1023.4
20210730071441 58 111 0.0 1.0 0.00 0.04 0.00 89 1023.4
20210730070941 58 111 0.0 0.0 0.00 0.04 0.00 89 1023.4
20210730070439 58 110 0.0 0.0 0.00 0.04 0.00 89 1023.4
20210730065940 58 110 0.0 0.0 0.00 0.04 0.04 88 1023.4
20210730065436 58 110 0.0 0.0 0.00 0.04 0.04 88 1023.4
20210730064937 58 111 0.0 1.0 0.00 0.04 0.04 88 1023.2
20210730064436 59 110 0.0 1.0 0.00 0.04 0.04 87 1023.2
20210730063936 59 110 0.0 1.0 0.00 0.04 0.04 86 1023.2
20210730063434 59 110 0.0 2.0 0.00 0.04 0.04 86 1023.2